Regional Weather Roundup
Issued by NWS Charleston, SC

Current Version | Previous Version | Graphics & Text | Print | Product List | Glossary On
Versions: 1 2 3 4 5 6 7 8 9 10 11 12 13 14 15 16 17 18 19 20 21 22 23 24 25 26 27 28 29 30 31 32 33 34 35 36 37 38 39 40 41 42 43 44 45 46 47 48 49 50
000
ASUS42 KCHS 250827
RWRCHS

Regional Weather Roundup
National Weather Service Charleston SC
300 AM EST SUN FEB 25 2018

NOTE: "fair" indicates few or no clouds below 12,000 feet with no
significant weather and/or obstructions to visibility.

Not all stations are quality controlled. Use data with caution,
especially dewpoint observations.

SCZ027-030-031-034>040-042>050-250900-
...Southeast South Carolina...

CITY           SKY/WX    TMP DP  RH WIND       PRES   REMARKS
N Charleston   FAIR      68  66  93 SW10      30.13F
Waterfront Prk   N/A     67  66  96 SW6       29.99S
Mount Pleasant FAIR      68  66  94 SW8       30.14S
Johns Island   FAIR      68  66  94 SW10      30.14S
Pinopolis        N/A     66  64  94 S7        30.03F
Moncks Corner  FAIR      64  63  94 S8        30.12F
Summerville    FAIR      64  63  94 S5        30.13F
Beaufort MCAS  FAIR      69  66  90 S8        30.13F
Beaufort Arpt  FAIR      68  63  83 S6        30.12F
Hilton Head Is FAIR      66  64  94 SW8       30.14S
Walterboro     FAIR      64  63  94 S6        30.12F
Allendale      FAIR      64  63  94 CALM      30.09F

...Southern Midlands and Pee Dee...

CITY           SKY/WX    TMP DP  RH WIND       PRES   REMARKS
Georgetown     FAIR      64  64 100 S5        30.14F
Kingstree      FAIR      63  63 100 S5        30.11F
Orangeburg     FAIR      64  62  93 S7        30.10F
Barnwell         N/A     66  64  94 CALM      30.09F
Aiken          FAIR      61  61 100 S7        30.11F
Manning        FAIR      64  55  72 MISG      30.11F
Columbia       FAIR      66  62  87 S9        30.06F
Sumter         FAIR      65  62  90 S10       30.07F
Florence       FAIR      64  63  96 S7        30.09F
Myrtle Beach   MOCLDY    67  64  90 S10       30.14F
N Myrtle Beach FAIR      64  63  96 SW10      30.12F

$$

GAZ063-065-086>088-099>101-113>116-118-119-134>141-150-250900-
...Southeast Georgia...

CITY           SKY/WX    TMP DP  RH WIND       PRES   REMARKS
Savannah Arpt  FAIR      66  64  93 S8        30.13F
Hunter AAF     FAIR      67  64  87 S3        30.10F
Fort Stewart   FAIR      64  63  97 CALM      30.11F
Statesboro     FAIR      64  32  30 S3        30.11F
Sylvania       FAIR      64  64 100 CALM      30.12F
Claxton        PTSUNNY   67  64  91 CALM      30.11F

...CSRA, Central and far Southeast Georgia...

CITY           SKY/WX    TMP DP  RH WIND       PRES   REMARKS
Thomson        FAIR      63  58  82 W6        30.12F
Augusta-Bush   FAIR      63  60  90 S7        30.08F
Augusta-Daniel FAIR      66  60  81 S7        30.09F
Swainsboro     FAIR      63  61  94 S3        30.11S
Vidalia        FAIR      63  61  94 CALM      30.11F
Eastman        FAIR      63  55  74 SW5       30.12F
Hazlehurst     FAIR      65  62  89 S3        30.10F
Alma           FAIR      65  61  87 S5        30.12S
Waycross       FAIR      65  62  90 SW5       30.12F
Jesup          FAIR      64  61  88 CALM      30.13S
Baxley         FAIR      61  61 100 CALM      30.12S
Brunswick      FAIR      68  61  77 S3        30.13F
Saint Simons   MOCLDY    69  65  86 S3        30.13F

$$

SCZ027-028-034-036>038-045-046-048>050-GAZ119-141-250900-
...Lake and Supplemental Coastal Observations...

STATION/POSITION TIME  TEMP    WIND        PRES    WAVE   SWELL
                       AIR SEA DIR/SP/G            HT/PER HT/PER/DIR
                 (UTC) (F)     (DEG/KT/KT) (MB)    (FT/S) (FT/S/D)
Winyah Bay       0745   68     200/  5     1021.0S
Lake Murray      0820   63     210/  7/  9 1017.3
ACE Basin NERRS  0745   68     180/  2     1020.0F
Fort Pulaski     0800   67 62  210/  9/ 12 1020.5
Sapelo Island    0800   67     180/  5     1020.0

$$

ANZ835-935-AMZ111-154-330-350-352-354-370-450-454-472-250900-
...C-MAN and Buoy Observations...

STATION/POSITION TIME  TEMP    WIND        PRES    WAVE   SWELL
                       AIR SEA DIR/SP/G            HT/PER HT/PER/DIR
                 (UTC) (F)     (DEG/KT/KT) (MB)    (FT/S) (FT/S/D)
Buoy 41004       0810   72 71  200/ 12/ 14 1020.3
Buoy 41008       0750   63 61  170/ 12/ 12 1020.1F   3/ 9   3/ 90/ 9
Folly Beach CMAN 0800   65     220/  4/  5 1021.2F
Capers Nearshore 0708   62 64  210/  8/ 12 1020.4S
Fripp Nearshore  0808   61 62  210/ 10/ 14 1019.9F


STATION/POSITION TIME  TEMP    WIND        PRES    WAVE   SWELL
                       AIR SEA DIR/SP/G            HT/PER HT/PER/DIR
                 (UTC) (F)     (DEG/KT/KT) (MB)    (FT/S) (FT/S/D)
5E St. Marys GA  0800      65                N/A     3/ 9   2/100/11
Frying Pan Buoy  0810   73 71  210/ 17/ 23 1020.4
Buoy 41025       0810   72 74  240/ 17/ 21 1020.1
Cape Lookout NC  0800          220/  9/ 13 1020.5F
Buoy 41002       0750   72 73  190/ 10/ 12 1022.8F   5/ 9   5/120/ 9
Buoy 41010       NOT AVBL
St Augustine FL  0800   68 63  190/  9/ 11 1021.0F


$$




USA.gov is the U.S. government's official web portal to all federal, state and local government web resources and services.